THORAD AGENA D DEB, 42532

Orbit data source: Space-Track

THORAD AGENA D DEB, 42532 is space debris in SSO originally from a launch on Wed, 08 Apr 1970 UTC launched from the Air Force Western Test Range (AFWTR). Debris objects in space refer to the collection of defunct objects orbiting the Earth. Examples of debris include non-operational satellites, rocket bodies, and fragments generated from explosions, collisions, or faulty payload assembly.

Loading next visibility...
Identifier
42532, 1970-025SN
Orbit
SSO
Country
Flag of USUS
Related business
Manufacturer
Unknown
Mission
Spacecraft
Bus & Motor
Unknown
Mass
Unknown
Launch date (UTC)
1970-04-08 (56 years ago)
Launch vehicle
Unknown
Launch site
Air Force Western Test Range (AFWTR)
Object type
Payload
Rocket body
Debris
Shape & HBR
Unknown shape, 0.1 m
Radar Cross Section
Small (<0.1 m²)

Expand to show TLE details & history
Last TLE update: 1 day ago

TLE from 1 day ago
0 THORAD AGENA D DEB
1 42532U 70025SN  26034.26804914  .00002323  00000-0  15440-2 0  9995
2 42532  99.9355 323.5838 0003355   5.7455 354.3746 14.02455706620905
Epoch: 2026-02-03T06:25Z
TLE epoch observation values (Epoch: 2026-02-03T06:25:59.445Z)
Latitude
0.00001°
Longitude
93.63469°
Altitude
885.727 km
Speed
7.411 km/s
True Right ascension
21h 34m 20s
True Declination
0° 00' 00"
Sunlit
Object was in daylight at epoch
Visualization orbit readout
Latitude
Unknown
Longitude
Unknown
Altitude
Unknown
Speed
Unknown
Apparent Right ascension
Unknown
Apparent Declination
Unknown
Sunlit
N/A
Visualization observer readout
Local Sidereal Time
19:58:48
Azimuth
Unknown
Elevation
Unknown
Doppler factor
Unknown
Orbital elements
Apogee altitude
884.984 km
Perigee altitude
880.112 km
Semi-major axis
7,260.685 km
Eccentricity
0.00034
Inclination
99.9355°
RAAN
323.5838°
Arg. of periapsis
5.7455°
True anomaly
354.37083°
Mean anomaly
354.3746°
Eccentric anomaly
354.37272°
Mean motion
3.50814 °/min
Orbital period
102.62 mins
BSTAR
0.001544
Loading maneuver chart data...
Computing Atmospheric mass density...

Documentation

Showing up to 5 results
|